Weather in Arzni

Armenia     40°17′44″N   44°35′50″E
temp.,
°C
wind,
m/s
gust,
m/s
humid.,
%
clouds,
%
prec.,
mm/h
press.,
hPa
HPBL,
m
8 march, mon
mon801:00+4nne4567100 0.1 1019158
04:00+3ne356899 0.1 1019168
07:00+3nne3375100 0.3 1018158
10:00+5n2163100 0.8 1016360
13:00+9s5640100 0.0 10131817
16:00+10s81035100 0.1 10102159
19:00+4se3373100 2.3 1013409
22:00+3ne226784 2.4 1016109
9 march, tue
tue901:00+1nne22621 0.0 101765
04:00+1ne11647 0.0 101749
07:00−1nne11570 0.0 101866
10:00+3s12500 0.0 1018463
13:00+6ssw36360 0.0 10161481
16:00+7sw573048 0.0 10152051
19:00+5wsw453428 0.0 1018922
22:00+2ne223857 0.0 102188
10 march, wed
wed1001:00+1nne223798 0.0 102291
04:00−1nne224067 0.0 102376
07:00−1ne11441 0.0 102466
10:00+2sse12350 0.0 1024439
13:00+5ssw34320 0.0 10211194
16:00+6sw343031 0.0 10181411
19:00+5sw123725 0.0 1019462
22:00+4nne224063 0.0 101980
11 march, thu
thu1101:00+3nne2245100 0.0 101784
04:00+4nne2247100 0.1 101572
07:00+2nne1254100 0.0 101343
10:00+5wnw1242100 0.0 1010542
13:00+9ssw5737100 0.0 10061430
16:00+8s6753100 0.0 10031053
19:00+7s3562100 0.1 1004741
22:00+2nne81273100 6.0 10071135
12 march, fri
fri1201:000n4769100 1.0 1008745
04:00−2n6958100 1.4 1011559
07:00−3n61053100 0.3 1015700
10:00−2nne5645100 0.3 1019987
13:000nne363786 0.0 10191764
16:00+1nne463269 0.0 10201948
19:000nne45393 0.0 1024287
22:00−3ne33467 0.0 1028174